This is the latest recevied weather packets stored in our database for station/object KQ4DLB-13. If no packets are shown the sender has not sent any weather packets the latest 1 day(s).
| Time | Temp. | Humidity | Pressure | Rain* | Wind** | Luminosity | Snow |
|---|---|---|---|---|---|---|---|
| 1777983902 | 15.56° C | 73% | 986 hPa | 0 mm | 1.79 m/s, 239° | - | - |
| 1777983602 | 15° C | 74% | 986 hPa | 0 mm | 0.89 m/s, 199° | - | - |
| 1777983302 | 15° C | 75% | 986 hPa | 0 mm | 1.34 m/s, 328° | - | - |
| 1777983002 | 15° C | 76% | 986 hPa | 0 mm | 1.79 m/s, 296° | - | - |
| 1777982702 | 14.44° C | 76% | 986 hPa | 0 mm | 1.79 m/s, 187° | - | - |
| 1777982402 | 14.44° C | 77% | 986.2 hPa | 0 mm | 1.34 m/s, 230° | - | - |
| 1777982102 | 13.89° C | 78% | 986.3 hPa | 0 mm | 1.79 m/s, 215° | - | - |
| 1777981802 | 13.89° C | 78% | 986.3 hPa | 0 mm | 1.79 m/s, 194° | - | - |
| 1777981502 | 13.33° C | 80% | 986.2 hPa | 0 mm | 1.79 m/s, 199° | - | - |
| 1777981202 | 13.33° C | 81% | 986 hPa | 0 mm | 1.79 m/s, 184° | - | - |
| 1777980902 | 13.33° C | 81% | 985.9 hPa | 0 mm | 1.79 m/s, 187° | - | - |
| 1777980602 | 12.78° C | 82% | 985.8 hPa | 0 mm | 1.34 m/s, 168° | - | - |
| 1777980302 | 12.78° C | 82% | 985.7 hPa | 0 mm | 1.34 m/s, 166° | - | - |
| 1777980002 | 12.78° C | 82% | 985.6 hPa | 0 mm | 0.89 m/s, 190° | - | - |
| 1777979703 | 12.78° C | 82% | 985.6 hPa | 0 mm | 1.34 m/s, 180° | - | - |
| 1777979402 | 12.78° C | 82% | 985.6 hPa | 0 mm | 1.34 m/s, 170° | - | - |
| 1777979101 | 12.78° C | 83% | 985.6 hPa | 0 mm | 1.79 m/s, 177° | - | - |
| 1777978803 | 12.78° C | 83% | 985.6 hPa | 0 mm | 1.34 m/s, 181° | - | - |
| 1777978502 | 12.78° C | 83% | 985.5 hPa | 0 mm | 1.34 m/s, 168° | - | - |
| 1777978202 | 12.78° C | 83% | 985.5 hPa | 0 mm | 1.34 m/s, 162° | - | - |
| 1777977902 | 12.22° C | 84% | 985.5 hPa | 0 mm | 1.79 m/s, 160° | - | - |
| 1777977602 | 12.22° C | 84% | 985.5 hPa | 0 mm | 1.34 m/s, 154° | - | - |
| 1777977302 | 12.22° C | 84% | 985.4 hPa | 0 mm | 1.34 m/s, 157° | - | - |
| 1777977002 | 12.22° C | 84% | 985.4 hPa | 0 mm | 1.34 m/s, 169° | - | - |
| 1777976702 | 12.22° C | 84% | 985.5 hPa | 0 mm | 1.34 m/s, 167° | - | - |
* Rain latest hour (hover to see other rain measurements)
** Current wind speed in m/s (hover to see current wind gust speed)